Regional Weather Roundup
Issued by NWS

Home | Current Version | Previous Version | Text Only | Print | Product List | Glossary On
Versions: 1 2 3 4 5 6 7 8 9 10 11 12 13 14 15 16 17 18 19 20 21 22 23 24 25 26 27 28 29 30 31 32 33 34 35 36 37 38 39 40 41 42 43 44 45 46 47 48 49 50
404
ASUS43 KIND 200409
RWRIN

WEATHER ROUNDUP FOR INDIANA
NATIONAL WEATHER SERVICE INDIANAPOLIS IN
1100 PM EST THU JAN 19 2017

NOTE: "FAIR" INDICATES FEW OR NO CLOUDS BELOW 12,000 FEET WITH NO
SIGNIFICANT WEATHER AND/OR OBSTRUCTIONS TO VISIBILITY.

* - STATION DOES NOT REPORT WEATHER SUCH AS PRECIPITATION OR FOG.

+ - STATION NOT QUALITY CONTROLLED BY THE NATIONAL WEATHER SERVICE.
    USE DATA WITH CAUTION...ESPECIALLY DEWPOINT AND RELATIVE
    HUMIDITY OBSERVATIONS.

INZ001>003-010>013-019-020-200500-
NORTHWEST INDIANA

CITY           SKY/WX    TMP DP  RH WIND       PRES   REMARKS
GARY /AIRPORT/ LGT RAIN  38  37  94 NE5       29.77F
KNOX *+        CLOUDY    37  30  75 E6        29.75F
LA PORTE +     RAIN      37  37  97 E7        29.77F
MICHIGAN CITY+ RAIN      37  37 100 CALM      29.78F
MONTICELLO +   LGT RAIN  41  39  95 E7G16     29.73F
RENSSELAER +   RAIN      41  41 100 E8        29.74S
VALPARAISO     LGT RAIN  39  38  96 E12       29.75F FOG

$$

LMZ046-743>745-200500-
SOUTHERN LAKE MICHIGAN

STATION/POSITION TIME  TEMP    WIND        PRES    WAVE
                       AIR SEA DIR/SP/G            HT
                 (UTC) (F)     (DEG/KT/KT) (MB)    (FT)
BURNS HARBOR     0340   35      50/  7/  8 1008.8F
MICHIGAN CITY    0340   38      50/  6/  7   N/A

$$

INZ004-005-014>016-021>024-200500-
NORTH CENTRAL INDIANA

CITY           SKY/WX    TMP DP  RH WIND       PRES   REMARKS
GOSHEN         LGT RAIN  37  34  89 E9        29.80F FOG
LOGANSPORT +   LGT RAIN  39  39 100 E15       29.74F
PERU/GRISSOM   LGT RAIN  41  41 100 E13       29.72F FOG
ROCHESTER +    LGT RAIN  41  41 100 E13       29.76F
SOUTH BEND     LGT RAIN  37  36  96 E9        29.79F FOG
WARSAW +       LGT RAIN  37  34  87 E9        29.79F

$$

INZ006>009-017-018-025>027-200500-
NORTHEAST INDIANA

CITY           SKY/WX    TMP DP  RH WIND       PRES   REMARKS
ANGOLA *+      CLOUDY    36  36 100 E8        29.81F
AUBURN +       LGT RAIN  37  34  87 E5        29.83F
FORT WAYNE     LGT RAIN  41  37  86 E12       29.81F FOG
HUNTINGTON +   LGT RAIN  39  38  95 E6        29.78F
KENDALLVILLE + CLOUDY    37  36  96 E9        29.81F FOG

$$

INZ028-029-035-036-043>045-051>053-200500-
WEST CENTRAL INDIANA

CITY           SKY/WX    TMP DP  RH WIND       PRES   REMARKS
CRAWFORDSVL +  LGT SNOW  42  42 100 E12       29.70F
GREENCASTLE +  LGT RAIN  43  43 100 E8        29.70F
LAFAYETTE      LGT RAIN  42  42 100 E9        29.71F FOG
TERRE HAUTE    LGT RAIN  46  44  93 E9        29.67F

$$

INZ030>032-037>040-046>048-054>057-064-065-200500-
CENTRAL INDIANA

CITY           SKY/WX    TMP DP  RH WIND       PRES   REMARKS
CP ATTERBURY + RAIN      45  43  93 E5        29.73F
FISHERS *+     CLOUDY    43  43 100 E6        29.73F
FRANKFORT +    RAIN      45  43  95 SE13      29.74F
GREENWOOD *+   CLOUDY    45  45 100 E8        29.72F
INDIANAPOLIS   HVY RAIN  44  43  96 E9        29.71F FOG
-EAGLE CREEK   RAIN      44  42  93 E7        29.72F FOG
KOKOMO +       RAIN      41  41 100 E12       29.75F FOG
MARION +       MIX PCPN  41  39  93 E12G17    29.76F
MT COMFORT *+  CLOUDY    43  43 100 E9        29.73F
SHELBYVILLE    RAIN      46  42  86 E9        29.72F
ZIONSVILLE +   RAIN      42  41  97 E9        29.73F

$$

INZ033-034-041-042-049-050-058-059-200500-
EAST CENTRAL INDIANA

CITY           SKY/WX    TMP DP  RH WIND       PRES   REMARKS
MUNCIE         RAIN      44  41  89 E13       29.75F FOG

$$

INZ060-061-067>069-081>083-085>088-200500-
SOUTHWEST INDIANA

CITY           SKY/WX    TMP DP  RH WIND       PRES   REMARKS
EVANSVILLE     LGT RAIN  54  53  97 SE3       29.68S FOG
HUNTINGBURG *+ LGT RAIN  51  50  96 SE7       29.68F
WASHINGTON +   RAIN      48  47  94 SE5       29.67F

$$

INZ062-063-066-070>080-084-089>092-200500-
SOUTH CENTRAL AND SOUTHEAST INDIANA

CITY           SKY/WX    TMP DP  RH WIND       PRES   REMARKS
BLOOMINGTON    RAIN      46  44  93 SE10      29.69F
MADISON *+     CLOUDY    46  45  93 E8        29.73F
NORTH VERNON + LGT RAIN N/A N/A N/A E7        29.73F
SEYMOUR +      LGT RAIN  48  48 100 E3        29.72F

$$





USA.gov is the U.S. government's official web portal to all federal, state and local government web resources and services.